Regional Weather Roundup
Issued by NWS

Home | Current Version | Previous Version | Text Only | Print | Product List | Glossary On
Versions: 1 2 3 4 5 6 7 8 9 10 11 12 13 14 15 16 17 18 19 20 21 22 23 24 25 26 27
000
ASUS46 KPQR 210010
RWROR

OREGON REGIONAL WEATHER ROUNDUP
NATIONAL WEATHER SERVICE PORTLAND OR
400 PM PST MON FEB 20 2017

NOTE: "FAIR" INDICATES FEW OR NO CLOUDS BELOW 12,000 FEET WITH
NO SIGNIFICANT WEATHER AND/OR OBSTRUCTIONS TO VISIBILITY.

ORZ001>013-210100-
NORTHWEST OREGON


CITY           SKY/WX    TMP DP  RH WIND       PRES   REMARKS
ASTORIA        LGT RAIN  47  44  90 S8        29.68R
6HR MIN TEMP:  45; 6HR MAX TEMP:  48; 6HR PCP:  0.15;

NEWPORT        HVY RAIN  46  46 100 S13       29.73F
PORTLAND       CLOUDY    47  44  90 E10       29.72R
6HR MIN TEMP:  43; 6HR MAX TEMP:  49; 6HR PCP:  0.09;

VANCOUVER WA   CLOUDY    49  46  90 E7        29.71R
6HR MIN TEMP:  43; 6HR MAX TEMP:  50; 6HR PCP:  0.09;

SCAPPOOSE      LGT RAIN  47  45  93 NW5       29.71R
6HR MIN TEMP:  44; 6HR MAX TEMP:  49; 6HR PCP:  0.13;

HILLSBORO      LGT RAIN  49  45  86 S8        29.70R
6HR MIN TEMP:  43; 6HR MAX TEMP:  49; 6HR PCP:  0.06;

AURORA         CLOUDY    51  43  74 S12       29.72R
6HR MIN TEMP:  44; 6HR MAX TEMP:  51; 6HR PCP:  0.03;

MCMINNVILLE    LGT RAIN  51  44  77 S10       29.71R
6HR MIN TEMP:  43; 6HR MAX TEMP:  51; 6HR PCP: TRACE;

SALEM          CLOUDY    51  43  74 S9        29.70S
6HR MIN TEMP:  43; 6HR MAX TEMP:  52; 6HR PCP:  0.01;

CORVALLIS        N/A     50  45  81 S8        29.69F
EUGENE         LGT RAIN  50  46  86 W6        29.71F
6HR MIN TEMP:  47; 6HR MAX TEMP:  52; 6HR PCP: TRACE;

$$

ORZ021-028-210100-
SOUTHWEST OREGON


CITY           SKY/WX    TMP DP  RH WIND       PRES   REMARKS
NORTH BEND     CLOUDY    50  46  87 W5        29.71S
6HR MIN TEMP:  46; 6HR MAX TEMP:  52;

BROOKINGS      LGT RAIN  49  48  97 VRB3      29.69F FOG
ROSEBURG       CLOUDY    53  44  71 N7        29.68F
6HR MIN TEMP:  51; 6HR MAX TEMP:  56; 6HR PCP: TRACE;

SEXTON SUMMIT  CLOUDY    39  36  89 S13G24    29.64S WCI  31
6HR MIN TEMP:  37; 6HR MAX TEMP:  43;

MEDFORD        CLOUDY    57  38  48 SW13      29.66R
6HR MIN TEMP:  53; 6HR MAX TEMP:  61;

$$

ORZ014>016-041-210100-
COLUMBIA GORGE


CITY           SKY/WX    TMP DP  RH WIND       PRES   REMARKS
TROUTDALE      CLOUDY    48  44  86 NE5       29.72S
6HR MIN TEMP:  43; 6HR MAX TEMP:  50; 6HR PCP:  0.07;

THE DALLES     PTSUNNY   51  39  63 NW14      29.68R
6HR MIN TEMP:  39; 6HR MAX TEMP:  52; 6HR PCP:  0.01;

$$

ORZ029>031-041-044-049-050-061>064-502-503-505>511-210100-
EASTERN OREGON


CITY           SKY/WX    TMP DP  RH WIND       PRES   REMARKS
REDMOND        PTSUNNY   51  30  44 W13       29.65R
6HR MIN TEMP:  49; 6HR MAX TEMP:  54; 6HR PCP: TRACE;

BEND           PTSUNNY   48  32  53 CALM      29.65F
PRINEVILLE     MOSUNNY   50  32  50 W16       29.65F
KLAMATH FALLS  RAIN      42  36  79 SE8       29.69R
6HR MIN TEMP:  42; 6HR MAX TEMP:  50; 6HR PCP:  0.03;

LAKEVIEW       CLOUDY    37  34  87 S17G23    29.76R WCI  28
HERMISTON      MOSUNNY   52  39  61 W18G29    29.65R
6HR MIN TEMP:  45; 6HR MAX TEMP:  54; 6HR PCP: TRACE;

PENDLETON      MOSUNNY   49  40  71 NW22      29.65R
6HR MIN TEMP:  48; 6HR MAX TEMP:  63;

JOHN DAY       PTSUNNY   53  27  37 W14G21    29.70R
MEACHAM        CLOUDY    43  33  68 CALM      29.67R
6HR MIN TEMP:  41; 6HR MAX TEMP:  53; 6HR PCP: TRACE;

LA GRANDE      PTSUNNY   57  28  33 W16       29.63R
6HR MIN TEMP:  46; 6HR MAX TEMP:  61;

BAKER CITY     SUNNY     51  32  48 S17G24    29.67R
6HR MIN TEMP:  46; 6HR MAX TEMP:  55; 6HR PCP: TRACE;

BURNS          CLOUDY    44  30  57 CALM      29.73S
6HR MIN TEMP:  38; 6HR MAX TEMP:  44;

ROME             N/A     51  35  54 S20G26    29.77R
6HR MIN TEMP:  51; 6HR MAX TEMP:  54;

ONTARIO        PTSUNNY   43  37  79 CALM      29.78R
6HR MIN TEMP:  36; 6HR MAX TEMP:  49; 6HR PCP:  0.03;

$$




USA.gov is the U.S. government's official web portal to all federal, state and local government web resources and services.